Preview of NWS' New Version of Forecast
This preview is not operational and should not be used for support decisions.

Regional Weather Roundup (RWR)

Issued by Gray - Portland, ME (GYX)

                            
000
ASUS41 KGYX 211310
RWRGYX
WEATHER ROUNDUP FOR MAINE AND NEW HAMPSHIRE
NATIONAL WEATHER SERVICE GRAY ME
900 AM EDT SUN APR 21 2019

MEZ002-005-006-010-012-015-018-020-021-024-026-027-029-211400-
MAINE
  
CITY           SKY/WX    TMP DP  RH WIND       PRES   REMARKS
PORTLAND       LGT RAIN  51  50  96 S6        30.05R VSB 1            
SANFORD        CLOUDY    57  57 100 S5        30.04R                  
BAR HARBOR     FOG       51  51 100 S16       30.08R VSB 3/4          
WISCASSET      FOG       51  50  96 SE5       30.05S VSB 1/4          
ROCKLAND       FOG       48  48 100 S8        30.05S VSB 1/2          
FRYEBURG       LGT RAIN  59  57  93 CALM      30.02S                  
LEWISTONAUBURN FOG       53  53 100 SE6       30.04R VSB 1/2          
AUGUSTA        FOG       53  53 100 S8        30.03R VSB<1/4          
WATERVILLE     CLOUDY    56  55  97 VRB7      30.00S                  
BANGOR         FOG       52  52 100 S13       30.06R VSB 1/4          
GREENVILLE       N/A     49  48  97 SE9       29.98R                  
MILLINOCKET    FOG       44  43  96 CALM      30.04R VSB 1/2          
HOULTON        FOG       51  51 100 SE9G20    29.99F VSB 1            
PRESQUE ISLE   CLOUDY    46  45  96 SE13      30.00S                  
FRENCHVILLE    FOG       43  40  89 SE8       29.97F VSB<1/4          
CARIBOU        CLOUDY    46  45  96 SW6       29.99R FOG              
$$

NHZ002-005-008-009-011-012-014-211400-
NEW HAMPSHIRE
  
CITY           SKY/WX    TMP DP  RH WIND       PRES   REMARKS
PORTSMOUTH     CLOUDY    57  57 100 CALM      30.02R                  
ROCHESTER      FOG       57  57 100 SE5       30.04R VSB 1            
NASHUA         CLOUDY    58  58 100 CALM      30.03R                  
MANCHESTER     CLOUDY    59  56  89 S5        30.01R                  
CONCORD        LGT RAIN  58  56  93 S5        30.03R                  
LACONIA        CLOUDY    56  56 100 CALM      30.03R                  
PLYMOUTH       CLOUDY    54  53  96 CALM      30.02R                  
BERLIN         PTSUNNY   59  54  83 CALM      29.98R                  
WHITEFIELD     CLOUDY    58  51  78 W6        29.99R                  
JAFFREY        LGT RAIN  56  52  86 CALM      30.03R                  
KEENE          LGT RAIN  57  53  86 S3        30.03R                  
LEBANON        CLOUDY    60  51  72 S13       30.00R                  
MT WASHINGTON  PTSUNNY   37  30  75 SW32G38     N/A                   
$$

VTZ005-007-008-211400-
VERMONT
  
CITY           SKY/WX    TMP DP  RH WIND       PRES   REMARKS
ST JOHNSBURY     N/A     57  52  83 MISG      29.97R                  
MONTPELIER     PTSUNNY   57  49  74 S9        30.02S                  
BURLINGTON     PTSUNNY   59  49  69 S12       29.94R                  
$$

MAZ007-012-024-CTZ003-RIZ002-NYZ038-NYZ072-211400-
SOUTHERN NEW ENGLAND AND NY
  
CITY           SKY/WX    TMP DP  RH WIND       PRES   REMARKS
BOSTON         CLOUDY    61  56  83 W3        30.01F                  
WORCESTER      LGT RAIN  54  53  97 SW7       30.01F                  
NANTUCKET      LGT RAIN  53  52  96 SE23G30   30.01S VSB 1/2          
PROVIDENCE     CLOUDY    56  55  97 VRB3      30.02R                  
HARTFORD       PTSUNNY   59  54  83 SE5       29.98F                  
ALBANY         PTSUNNY   60  51  72 S7        29.96R                  
NEW YORK CITY  LGT RAIN  57  51  80 S13       29.97R                  
$$

ANZ081-ANZ082-ANZ150-NHZ014-MEZ023>029-211400-
COASTAL MARINE OBSERVATIONS
  
STATION/POSITION TIME  TEMP    WIND        PRES    WAVE
                       AIR SEA DIR/SP/G            HT/PER
                 (UTC) (F)     (DEG/KT/KT) (MB)    (FT/S)
ISLE OF SHOALS   1200   50     150/ 26/ 29 1015.2F
$$

.............KEY..............
   WCI - WIND CHILL
   TC  - TEMPERATURE IN CELSIUS
   VSB - VISIBILITY IN MILES
   HX  - HEAT INDEX
   FAIR- INDICATES FEW OR NO CLOUDS BELOW 12,000 FT, WITH NO 
         SIGNIFICANT WEATHER AND/OR OBSTRUCTIONS TO VISIBILITY.